| time (UTC) | temp F | wind direction | speed MPH | gust MPH | rain 1hr in | rain 24hr in | rain mn in | humidity % | barometer mb |
| 20260507025148 | 57 | 337 | 4.0 | 6.0 | 0.00 | 0.00 | 0.00 | 82 | 1018.2 |
| 20260507024648 | 57 | 322 | 4.0 | 6.0 | 0.00 | 0.00 | 0.00 | 81 | 1018.1 |
| 20260507024150 | 57 | 351 | 4.0 | 6.0 | 0.00 | 0.00 | 0.00 | 81 | 1018.1 |
| 20260507023648 | 57 | 333 | 4.0 | 6.0 | 0.00 | 0.00 | 0.00 | 81 | 1018.0 |
| 20260507023148 | 57 | 329 | 1.0 | 6.0 | 0.00 | 0.00 | 0.00 | 81 | 1018.1 |
| 20260507022649 | 57 | 330 | 3.0 | 6.0 | 0.00 | 0.00 | 0.00 | 81 | 1018.0 |
| 20260507022149 | 57 | 343 | 3.0 | 5.0 | 0.00 | 0.00 | 0.00 | 81 | 1018.0 |
| 20260507021648 | 57 | 350 | 4.0 | 8.0 | 0.00 | 0.00 | 0.00 | 81 | 1018.0 |
| 20260507021150 | 57 | 313 | 3.0 | 8.0 | 0.00 | 0.00 | 0.00 | 81 | 1018.1 |
| 20260507020649 | 58 | 341 | 4.0 | 8.0 | 0.00 | 0.00 | 0.00 | 81 | 1018.1 |
| 20260507020148 | 58 | 337 | 5.0 | 6.0 | 0.00 | 0.00 | 0.00 | 80 | 1018.1 |
| 20260507015649 | 58 | 357 | 4.0 | 6.0 | 0.00 | 0.00 | 0.00 | 80 | 1018.1 |
| 20260507015149 | 58 | 338 | 2.0 | 6.0 | 0.00 | 0.00 | 0.00 | 80 | 1018.1 |
| 20260507014648 | 58 | 319 | 3.0 | 6.0 | 0.00 | 0.00 | 0.00 | 80 | 1018.2 |
| 20260507014150 | 58 | 313 | 2.0 | 5.0 | 0.00 | 0.00 | 0.00 | 80 | 1018.2 |
| 20260507013648 | 58 | 306 | 1.0 | 5.0 | 0.00 | 0.00 | 0.00 | 80 | 1018.2 |
| 20260507013149 | 58 | 317 | 3.0 | 3.0 | 0.00 | 0.00 | 0.00 | 80 | 1018.3 |
| 20260507012650 | 58 | 306 | 2.0 | 3.0 | 0.00 | 0.00 | 0.00 | 80 | 1018.3 |
| 20260507012150 | 58 | 298 | 1.0 | 5.0 | 0.00 | 0.00 | 0.00 | 79 | 1018.3 |
| 20260507011150 | 58 | 289 | 1.0 | 5.0 | 0.00 | 0.00 | 0.00 | 79 | 1018.3 |
| 20260507010649 | 58 | 294 | 2.0 | 5.0 | 0.00 | 0.00 | 0.00 | 79 | 1018.4 |
| 20260507010148 | 58 | 326 | 3.0 | 5.0 | 0.00 | 0.00 | 0.00 | 79 | 1018.4 |
| 20260507005649 | 58 | 306 | 4.0 | 5.0 | 0.00 | 0.00 | 0.00 | 79 | 1018.5 |
| 20260507005148 | 58 | 278 | 3.0 | 6.0 | 0.00 | 0.00 | 0.00 | 79 | 1018.5 |
| 20260507004648 | 59 | 323 | 2.0 | 6.0 | 0.00 | 0.00 | 0.00 | 79 | 1018.4 |
| 20260507004150 | 59 | 287 | 2.0 | 6.0 | 0.00 | 0.00 | 0.00 | 79 | 1018.4 |
| 20260507003648 | 59 | 289 | 4.0 | 6.0 | 0.00 | 0.00 | 0.00 | 79 | 1018.5 |
| 20260507003149 | 59 | 299 | 2.0 | 6.0 | 0.00 | 0.00 | 0.00 | 80 | 1018.5 |
| 20260507002149 | 58 | 284 | 4.0 | 6.0 | 0.00 | 0.00 | 0.00 | 80 | 1018.5 |
| 20260507001648 | 58 | 292 | 5.0 | 6.0 | 0.00 | 0.00 | 0.00 | 80 | 1018.5 |
| 20260507001150 | 58 | 308 | 3.0 | 6.0 | 0.00 | 0.00 | 0.00 | 80 | 1018.6 |
| 20260507000149 | 58 | 310 | 4.0 | 6.0 | 0.00 | 0.00 | 0.00 | 80 | 1018.6 |
| 20260506235649 | 58 | 302 | 4.0 | 6.0 | 0.00 | 0.00 | 0.00 | 80 | 1018.6 |
| 20260506235148 | 58 | 303 | 5.0 | 7.0 | 0.00 | 0.00 | 0.00 | 80 | 1018.6 |
| 20260506234648 | 58 | 299 | 4.0 | 7.0 | 0.00 | 0.00 | 0.00 | 80 | 1018.6 |
| 20260506234151 | 58 | 308 | 3.0 | 7.0 | 0.00 | 0.00 | 0.00 | 79 | 1018.7 |
| 20260506233648 | 58 | 289 | 3.0 | 7.0 | 0.00 | 0.00 | 0.00 | 79 | 1018.7 |
| 20260506233149 | 58 | 288 | 5.0 | 8.0 | 0.00 | 0.00 | 0.00 | 79 | 1018.7 |
| 20260506232649 | 58 | 306 | 5.0 | 8.0 | 0.00 | 0.00 | 0.00 | 80 | 1018.7 |
| 20260506232148 | 58 | 301 | 5.0 | 8.0 | 0.00 | 0.00 | 0.00 | 79 | 1018.7 |
| 20260506231649 | 58 | 271 | 4.0 | 8.0 | 0.00 | 0.00 | 0.00 | 79 | 1018.8 |
| 20260506231150 | 58 | 296 | 3.0 | 8.0 | 0.00 | 0.00 | 0.00 | 79 | 1018.7 |
| 20260506230148 | 58 | 287 | 6.0 | 8.0 | 0.00 | 0.00 | 0.00 | 79 | 1018.8 |
| 20260506225649 | 58 | 315 | 4.0 | 8.0 | 0.00 | 0.00 | 0.00 | 79 | 1018.9 |
| 20260506225148 | 58 | 313 | 4.0 | 7.0 | 0.00 | 0.00 | 0.00 | 79 | 1018.8 |
| 20260506224150 | 58 | 306 | 4.0 | 7.0 | 0.00 | 0.00 | 0.00 | 78 | 1018.9 |
| 20260506223648 | 59 | 306 | 5.0 | 6.0 | 0.00 | 0.00 | 0.00 | 78 | 1019.0 |
| 20260506223149 | 59 | 299 | 4.0 | 9.0 | 0.00 | 0.00 | 0.00 | 78 | 1019.0 |
| 20260506222649 | 59 | 295 | 4.0 | 9.0 | 0.00 | 0.00 | 0.00 | 78 | 1019.1 |
| 20260506222148 | 59 | 294 | 5.0 | 9.0 | 0.00 | 0.00 | 0.00 | 78 | 1019.1 |
| 20260506221648 | 59 | 292 | 5.0 | 8.0 | 0.00 | 0.00 | 0.00 | 78 | 1019.1 |
| 20260506221150 | 59 | 288 | 4.0 | 8.0 | 0.00 | 0.00 | 0.00 | 78 | 1019.1 |
| 20260506220648 | 59 | 320 | 3.0 | 7.0 | 0.00 | 0.00 | 0.00 | 78 | 1019.0 |
| 20260506215649 | 59 | 274 | 6.0 | 8.0 | 0.00 | 0.00 | 0.00 | 78 | 1019.0 |
| 20260506215150 | 59 | 296 | 5.0 | 8.0 | 0.00 | 0.00 | 0.00 | 78 | 1018.9 |
| 20260506214649 | 59 | 295 | 4.0 | 9.0 | 0.00 | 0.00 | 0.00 | 77 | 1018.9 |
| 20260506214150 | 60 | 295 | 4.0 | 9.0 | 0.00 | 0.00 | 0.00 | 78 | 1018.8 |
| 20260506213148 | 59 | 295 | 6.0 | 8.0 | 0.00 | 0.00 | 0.00 | 78 | 1018.8 |
| 20260506212650 | 59 | 298 | 6.0 | 8.0 | 0.00 | 0.00 | 0.00 | 78 | 1018.8 |
| 20260506212149 | 59 | 301 | 5.0 | 7.0 | 0.00 | 0.00 | 0.00 | 78 | 1018.7 |
| 20260506211150 | 59 | 310 | 4.0 | 8.0 | 0.00 | 0.00 | 0.00 | 77 | 1018.8 |
| 20260506210648 | 60 | 291 | 4.0 | 8.0 | 0.00 | 0.00 | 0.00 | 77 | 1018.8 |
| 20260506210148 | 60 | 302 | 4.0 | 8.0 | 0.00 | 0.00 | 0.00 | 77 | 1018.8 |
| 20260506205148 | 59 | 274 | 5.0 | 6.0 | 0.00 | 0.00 | 0.00 | 77 | 1018.8 |
| 20260506204648 | 59 | 295 | 4.0 | 6.0 | 0.00 | 0.00 | 0.00 | 77 | 1018.8 |
| 20260506204150 | 59 | 294 | 3.0 | 6.0 | 0.00 | 0.00 | 0.00 | 76 | 1018.7 |
| 20260506203648 | 60 | 282 | 4.0 | 6.0 | 0.00 | 0.00 | 0.00 | 77 | 1018.6 |
| 20260506203149 | 60 | 288 | 5.0 | 7.0 | 0.00 | 0.00 | 0.00 | 78 | 1018.6 |
| 20260506202649 | 59 | 296 | 5.0 | 7.0 | 0.00 | 0.00 | 0.00 | 77 | 1018.6 |
| 20260506202150 | 59 | 298 | 5.0 | 7.0 | 0.00 | 0.00 | 0.00 | 77 | 1018.5 |
| 20260506201648 | 59 | 302 | 5.0 | 7.0 | 0.00 | 0.00 | 0.00 | 77 | 1018.6 |
| 20260506201150 | 59 | 301 | 4.0 | 7.0 | 0.00 | 0.00 | 0.00 | 78 | 1018.6 |
| 20260506200648 | 59 | 289 | 5.0 | 6.0 | 0.00 | 0.00 | 0.00 | 77 | 1018.6 |
| 20260506200148 | 59 | 284 | 3.0 | 5.0 | 0.00 | 0.00 | 0.00 | 78 | 1018.6 |
| 20260506195649 | 59 | 267 | 4.0 | 4.0 | 0.00 | 0.00 | 0.00 | 78 | 1018.6 |
| 20260506195148 | 59 | 289 | 3.0 | 4.0 | 0.00 | 0.00 | 0.00 | 78 | 1018.6 |
| 20260506194648 | 58 | 299 | 1.0 | 4.0 | 0.00 | 0.00 | 0.00 | 78 | 1018.7 |
| 20260506194150 | 58 | 287 | 3.0 | 4.0 | 0.00 | 0.00 | 0.00 | 78 | 1018.6 |
| 20260506193648 | 58 | 294 | 1.0 | 4.0 | 0.00 | 0.00 | 0.00 | 78 | 1018.7 |
| 20260506193149 | 58 | 287 | 2.0 | 6.0 | 0.00 | 0.00 | 0.00 | 79 | 1018.6 |
| 20260506192649 | 58 | 278 | 3.0 | 6.0 | 0.00 | 0.00 | 0.00 | 79 | 1018.6 |
| 20260506192148 | 58 | 296 | 4.0 | 6.0 | 0.00 | 0.00 | 0.00 | 78 | 1018.6 |
| 20260506191150 | 58 | 315 | 3.0 | 7.0 | 0.00 | 0.00 | 0.00 | 79 | 1018.5 |
| 20260506190649 | 58 | 294 | 2.0 | 7.0 | 0.00 | 0.00 | 0.00 | 79 | 1018.5 |
| 20260506190148 | 58 | 294 | 5.0 | 8.0 | 0.00 | 0.00 | 0.00 | 79 | 1018.6 |
| 20260506185649 | 58 | 306 | 4.0 | 8.0 | 0.00 | 0.00 | 0.00 | 79 | 1018.6 |
| 20260506185148 | 58 | 296 | 5.0 | 8.0 | 0.00 | 0.00 | 0.00 | 79 | 1018.6 |
| 20260506184648 | 58 | 274 | 5.0 | 8.0 | 0.00 | 0.00 | 0.00 | 79 | 1018.5 |
| 20260506184150 | 58 | 312 | 4.0 | 6.0 | 0.00 | 0.00 | 0.00 | 79 | 1018.5 |
| 20260506183648 | 58 | 309 | 3.0 | 6.0 | 0.00 | 0.00 | 0.00 | 79 | 1018.5 |
| 20260506183148 | 58 | 301 | 4.0 | 6.0 | 0.00 | 0.00 | 0.00 | 78 | 1018.4 |
| 20260506182649 | 58 | 308 | 5.0 | 5.0 | 0.00 | 0.00 | 0.00 | 78 | 1018.4 |
| 20260506182148 | 58 | 291 | 3.0 | 5.0 | 0.00 | 0.00 | 0.00 | 78 | 1018.4 |
| 20260506181648 | 58 | 250 | 3.0 | 5.0 | 0.00 | 0.00 | 0.00 | 78 | 1018.3 |
| 20260506181150 | 58 | 278 | 3.0 | 4.0 | 0.00 | 0.00 | 0.00 | 78 | 1018.2 |
| 20260506180648 | 58 | 275 | 3.0 | 4.0 | 0.00 | 0.00 | 0.00 | 78 | 1018.2 |
| 20260506180148 | 58 | 224 | 2.0 | 4.0 | 0.00 | 0.00 | 0.00 | 78 | 1018.2 |
| 20260506175650 | 58 | 219 | 1.0 | 5.0 | 0.00 | 0.00 | 0.00 | 77 | 1018.1 |
| 20260506175149 | 58 | 191 | 1.0 | 5.0 | 0.00 | 0.00 | 0.00 | 78 | 1018.0 |
| 20260506174648 | 58 | 252 | 1.0 | 5.0 | 0.00 | 0.00 | 0.00 | 79 | 1018.0 |
| 20260506174150 | 58 | 163 | 3.0 | 5.0 | 0.00 | 0.00 | 0.00 | 79 | 1018.0 |
| 20260506173649 | 58 | 238 | 2.0 | 5.0 | 0.00 | 0.00 | 0.00 | 78 | 1017.9 |
| 20260506173148 | 58 | 194 | 1.0 | 4.0 | 0.00 | 0.00 | 0.00 | 78 | 1017.9 |
| 20260506172649 | 58 | 249 | 2.0 | 4.0 | 0.00 | 0.00 | 0.00 | 79 | 1017.9 |
| 20260506172148 | 58 | 246 | 3.0 | 6.0 | 0.00 | 0.00 | 0.00 | 79 | 1017.9 |
| 20260506171648 | 58 | 212 | 3.0 | 6.0 | 0.00 | 0.00 | 0.00 | 79 | 1017.8 |
| 20260506171150 | 57 | 197 | 1.0 | 6.0 | 0.00 | 0.00 | 0.00 | 79 | 1017.7 |
| 20260506170649 | 58 | 260 | 1.0 | 5.0 | 0.00 | 0.00 | 0.00 | 79 | 1017.8 |
| 20260506165649 | 57 | 281 | 3.0 | 4.0 | 0.00 | 0.00 | 0.00 | 80 | 1017.7 |
| 20260506165148 | 57 | 228 | 0.0 | 4.0 | 0.00 | 0.00 | 0.00 | 80 | 1017.6 |
| 20260506164648 | 57 | 246 | 0.0 | 3.0 | 0.00 | 0.00 | 0.00 | 80 | 1017.6 |
| 20260506164150 | 57 | 267 | 1.0 | 3.0 | 0.00 | 0.00 | 0.00 | 80 | 1017.7 |
| 20260506163648 | 57 | 235 | 2.0 | 2.0 | 0.00 | 0.00 | 0.00 | 80 | 1017.7 |
| 20260506163148 | 57 | 249 | 0.0 | 4.0 | 0.00 | 0.00 | 0.00 | 80 | 1017.6 |
| 20260506162148 | 57 | 296 | 0.0 | 4.0 | 0.00 | 0.00 | 0.00 | 81 | 1017.6 |
| 20260506161648 | 57 | 273 | 2.0 | 4.0 | 0.00 | 0.00 | 0.00 | 81 | 1017.6 |
| 20260506161150 | 57 | 266 | 1.0 | 4.0 | 0.00 | 0.00 | 0.00 | 81 | 1017.5 |
| 20260506160648 | 56 | 201 | 2.0 | 4.0 | 0.00 | 0.00 | 0.00 | 81 | 1017.6 |
| 20260506155650 | 56 | 285 | 1.0 | 4.0 | 0.00 | 0.00 | 0.00 | 81 | 1017.5 |
| 20260506155148 | 56 | 261 | 1.0 | 3.0 | 0.00 | 0.00 | 0.00 | 81 | 1017.5 |
| 20260506154649 | 56 | 289 | 0.0 | 3.0 | 0.00 | 0.00 | 0.00 | 82 | 1017.4 |
| 20260506154151 | 56 | 268 | 1.0 | 3.0 | 0.00 | 0.00 | 0.00 | 82 | 1017.4 |
| 20260506153649 | 56 | 299 | 0.0 | 3.0 | 0.00 | 0.00 | 0.00 | 82 | 1017.3 |
| 20260506153148 | 56 | 284 | 0.0 | 3.0 | 0.00 | 0.00 | 0.00 | 82 | 1017.2 |
| 20260506152649 | 56 | 277 | 2.0 | 3.0 | 0.00 | 0.00 | 0.00 | 82 | 1017.2 |
| 20260506152148 | 56 | 0 | 1.0 | 1.0 | 0.00 | 0.00 | 0.00 | 82 | 1017.1 |
| 20260506151648 | 56 | 0 | 0.0 | 0.0 | 0.00 | 0.00 | 0.00 | 82 | 1016.9 |
| 20260506151150 | 56 | 0 | 0.0 | 3.0 | 0.00 | 0.00 | 0.00 | 82 | 1016.8 |
| 20260506150649 | 56 | 0 | 0.0 | 3.0 | 0.00 | 0.00 | 0.00 | 82 | 1016.8 |
| 20260506150148 | 56 | 278 | 0.0 | 3.0 | 0.00 | 0.00 | 0.00 | 82 | 1016.8 |
| 20260506145649 | 55 | 130 | 0.0 | 2.0 | 0.00 | 0.00 | 0.00 | 83 | 1017.0 |
| 20260506145148 | 55 | 142 | 1.0 | 1.0 | 0.00 | 0.00 | 0.00 | 83 | 1016.7 |
| 20260506144648 | 55 | 0 | 0.0 | 1.0 | 0.00 | 0.00 | 0.00 | 83 | 1016.6 |
| 20260506144151 | 55 | 0 | 0.0 | 1.0 | 0.00 | 0.00 | 0.00 | 83 | 1016.6 |
| 20260506143648 | 55 | 91 | 0.0 | 1.0 | 0.00 | 0.00 | 0.00 | 83 | 1016.9 |
| 20260506143148 | 55 | 78 | 0.0 | 1.0 | 0.00 | 0.00 | 0.00 | 83 | 1016.9 |
| 20260506142649 | 55 | 280 | 0.0 | 3.0 | 0.00 | 0.00 | 0.00 | 83 | 1016.9 |
| 20260506142148 | 55 | 347 | 0.0 | 3.0 | 0.00 | 0.00 | 0.00 | 83 | 1017.1 |
| 20260506141649 | 55 | 319 | 0.0 | 3.0 | 0.00 | 0.00 | 0.00 | 83 | 1017.0 |
| 20260506141150 | 55 | 324 | 0.0 | 6.0 | 0.00 | 0.00 | 0.00 | 83 | 1017.0 |
| 20260506140648 | 55 | 333 | 2.0 | 6.0 | 0.00 | 0.00 | 0.00 | 83 | 1016.9 |
| 20260506140148 | 55 | 334 | 1.0 | 6.0 | 0.00 | 0.00 | 0.00 | 83 | 1016.9 |
| 20260506135649 | 55 | 324 | 4.0 | 5.0 | 0.00 | 0.00 | 0.00 | 83 | 1017.0 |
| 20260506135148 | 55 | 306 | 3.0 | 4.0 | 0.00 | 0.00 | 0.00 | 83 | 1017.0 |
| 20260506134648 | 55 | 295 | 0.0 | 2.0 | 0.00 | 0.00 | 0.00 | 83 | 1016.8 |
| 20260506134150 | 55 | 0 | 0.0 | 0.0 | 0.00 | 0.00 | 0.00 | 83 | 1016.6 |
| 20260506133648 | 55 | 0 | 0.0 | 0.0 | 0.00 | 0.00 | 0.00 | 83 | 1016.5 |
| 20260506133148 | 55 | 0 | 0.0 | 0.0 | 0.00 | 0.00 | 0.00 | 83 | 1016.4 |
| 20260506132649 | 55 | 0 | 0.0 | 0.0 | 0.00 | 0.00 | 0.00 | 83 | 1016.4 |
| 20260506132148 | 55 | 0 | 0.0 | 4.0 | 0.00 | 0.00 | 0.00 | 83 | 1016.5 |
| 20260506131648 | 55 | 0 | 0.0 | 4.0 | 0.00 | 0.00 | 0.00 | 82 | 1016.4 |
| 20260506131152 | 55 | 226 | 0.0 | 4.0 | 0.00 | 0.00 | 0.00 | 82 | 1016.5 |
| 20260506130649 | 55 | 287 | 2.0 | 2.0 | 0.00 | 0.00 | 0.00 | 83 | 1016.4 |
| 20260506130148 | 55 | 0 | 0.0 | 0.0 | 0.00 | 0.00 | 0.00 | 83 | 1016.5 |
| 20260506125649 | 55 | 0 | 0.0 | 0.0 | 0.00 | 0.00 | 0.00 | 83 | 1016.4 |
| 20260506124648 | 55 | 0 | 0.0 | 0.0 | 0.00 | 0.00 | 0.00 | 83 | 1016.2 |
| 20260506124150 | 55 | 0 | 0.0 | 0.0 | 0.00 | 0.00 | 0.00 | 82 | 1016.2 |
| 20260506123648 | 55 | 0 | 0.0 | 0.0 | 0.00 | 0.00 | 0.00 | 83 | 1016.1 |
| 20260506123148 | 55 | 0 | 0.0 | 0.0 | 0.00 | 0.00 | 0.00 | 83 | 1016.0 |
| 20260506122649 | 55 | 0 | 0.0 | 0.0 | 0.00 | 0.00 | 0.00 | 83 | 1016.1 |
| 20260506122148 | 55 | 0 | 0.0 | 5.0 | 0.00 | 0.00 | 0.00 | 82 | 1016.0 |
| 20260506121648 | 55 | 0 | 0.0 | 5.0 | 0.00 | 0.00 | 0.00 | 82 | 1015.9 |
| 20260506121150 | 55 | 207 | 0.0 | 5.0 | 0.00 | 0.00 | 0.00 | 82 | 1015.8 |
| 20260506120648 | 55 | 0 | 1.0 | 1.0 | 0.00 | 0.00 | 0.00 | 82 | 1015.8 |
| 20260506120148 | 55 | 0 | 0.0 | 0.0 | 0.00 | 0.00 | 0.00 | 82 | 1015.9 |
| 20260506115649 | 55 | 0 | 0.0 | 0.0 | 0.00 | 0.00 | 0.00 | 82 | 1016.0 |
| 20260506115148 | 55 | 0 | 0.0 | 3.0 | 0.00 | 0.00 | 0.00 | 82 | 1015.9 |
| 20260506114648 | 55 | 116 | 0.0 | 3.0 | 0.00 | 0.00 | 0.00 | 82 | 1015.9 |
| 20260506114150 | 55 | 238 | 0.0 | 3.0 | 0.00 | 0.00 | 0.00 | 82 | 1015.8 |
| 20260506113648 | 55 | 0 | 1.0 | 1.0 | 0.00 | 0.00 | 0.00 | 82 | 1015.8 |
| 20260506113148 | 55 | 0 | 0.0 | 0.0 | 0.00 | 0.00 | 0.00 | 82 | 1015.9 |
| 20260506112649 | 55 | 0 | 0.0 | 0.0 | 0.00 | 0.00 | 0.00 | 82 | 1015.9 |
| 20260506112148 | 55 | 0 | 0.0 | 0.0 | 0.00 | 0.00 | 0.00 | 82 | 1015.9 |
| 20260506111648 | 55 | 0 | 0.0 | 0.0 | 0.00 | 0.00 | 0.00 | 82 | 1015.8 |
| 20260506111150 | 55 | 0 | 0.0 | 0.0 | 0.00 | 0.00 | 0.00 | 82 | 1015.8 |
| 20260506110648 | 55 | 0 | 0.0 | 0.0 | 0.00 | 0.00 | 0.00 | 82 | 1015.9 |
| 20260506105649 | 55 | 0 | 0.0 | 7.0 | 0.00 | 0.00 | 0.00 | 82 | 1015.8 |
| 20260506105148 | 55 | 288 | 0.0 | 7.0 | 0.00 | 0.00 | 0.00 | 82 | 1015.8 |
| 20260506104648 | 55 | 299 | 3.0 | 7.0 | 0.00 | 0.00 | 0.00 | 82 | 1015.8 |
| 20260506104150 | 55 | 275 | 2.0 | 4.0 | 0.00 | 0.00 | 0.00 | 82 | 1015.7 |
| 20260506103648 | 55 | 289 | 2.0 | 3.0 | 0.00 | 0.00 | 0.00 | 82 | 1015.7 |
| 20260506103148 | 55 | 299 | 1.0 | 3.0 | 0.00 | 0.00 | 0.00 | 82 | 1015.6 |
| 20260506102649 | 55 | 333 | 1.0 | 3.0 | 0.00 | 0.00 | 0.00 | 82 | 1015.6 |
| 20260506102148 | 55 | 285 | 2.0 | 4.0 | 0.00 | 0.00 | 0.00 | 83 | 1015.5 |
| 20260506101648 | 55 | 277 | 1.0 | 4.0 | 0.00 | 0.00 | 0.00 | 83 | 1015.4 |
| 20260506101150 | 55 | 313 | 1.0 | 4.0 | 0.00 | 0.00 | 0.00 | 83 | 1015.4 |
| 20260506100648 | 55 | 320 | 2.0 | 8.0 | 0.00 | 0.00 | 0.00 | 83 | 1015.3 |
| 20260506100148 | 55 | 316 | 3.0 | 8.0 | 0.00 | 0.00 | 0.00 | 83 | 1015.3 |
| 20260506095649 | 55 | 299 | 4.0 | 8.0 | 0.00 | 0.00 | 0.00 | 83 | 1015.4 |
| 20260506095148 | 55 | 303 | 3.0 | 6.0 | 0.00 | 0.00 | 0.00 | 83 | 1015.3 |
| 20260506094648 | 55 | 278 | 2.0 | 7.0 | 0.00 | 0.00 | 0.00 | 83 | 1015.3 |
| 20260506094150 | 55 | 302 | 3.0 | 7.0 | 0.00 | 0.00 | 0.00 | 83 | 1015.2 |
| 20260506093648 | 55 | 319 | 4.0 | 7.0 | 0.00 | 0.00 | 0.00 | 83 | 1015.1 |
| 20260506093148 | 55 | 320 | 1.0 | 6.0 | 0.00 | 0.00 | 0.00 | 83 | 1015.1 |
| 20260506092649 | 56 | 296 | 2.0 | 6.0 | 0.00 | 0.00 | 0.00 | 83 | 1015.1 |
| 20260506092148 | 55 | 301 | 2.0 | 5.0 | 0.00 | 0.00 | 0.00 | 83 | 1015.1 |
| 20260506091648 | 56 | 0 | 0.0 | 0.0 | 0.00 | 0.00 | 0.00 | 83 | 1015.0 |
| 20260506091149 | 56 | 0 | 0.0 | 0.0 | 0.00 | 0.00 | 0.00 | 83 | 1015.0 |
| 20260506090647 | 55 | 0 | 0.0 | 0.0 | 0.00 | 0.00 | 0.00 | 83 | 1015.0 |
| 20260506085649 | 55 | 0 | 0.0 | 0.0 | 0.00 | 0.01 | 0.00 | 83 | 1014.9 |
| 20260506084648 | 55 | 0 | 0.0 | 0.0 | 0.00 | 0.01 | 0.00 | 83 | 1014.9 |
| 20260506084150 | 56 | 0 | 0.0 | 0.0 | 0.00 | 0.01 | 0.00 | 83 | 1014.9 |
| 20260506083648 | 55 | 0 | 0.0 | 0.0 | 0.00 | 0.01 | 0.00 | 83 | 1014.9 |
| 20260506083147 | 56 | 0 | 0.0 | 0.0 | 0.00 | 0.01 | 0.00 | 83 | 1014.9 |
| 20260506082650 | 56 | 0 | 0.0 | 0.0 | 0.00 | 0.01 | 0.00 | 83 | 1014.9 |
| 20260506082147 | 56 | 0 | 0.0 | 0.0 | 0.00 | 0.01 | 0.00 | 83 | 1014.8 |
| 20260506081648 | 56 | 0 | 0.0 | 0.0 | 0.00 | 0.01 | 0.00 | 83 | 1014.8 |
| 20260506081151 | 56 | 0 | 0.0 | 0.0 | 0.00 | 0.01 | 0.00 | 83 | 1014.7 |
| 20260506080647 | 56 | 0 | 0.0 | 0.0 | 0.00 | 0.01 | 0.00 | 83 | 1014.7 |
| 20260506073147 | 56 | 0 | 0.0 | 0.0 | 0.00 | 0.01 | 0.00 | 83 | 1014.3 |
| 20260506072649 | 56 | 0 | 0.0 | 0.0 | 0.00 | 0.01 | 0.00 | 82 | 1014.2 |
| 20260506072147 | 56 | 0 | 0.0 | 0.0 | 0.00 | 0.01 | 0.00 | 83 | 1014.2 |
| 20260506071647 | 56 | 0 | 0.0 | 0.0 | 0.00 | 0.01 | 0.00 | 83 | 1014.1 |
| 20260506071150 | 56 | 0 | 0.0 | 0.0 | 0.00 | 0.01 | 0.00 | 83 | 1014.1 |
| 20260506070647 | 56 | 0 | 0.0 | 0.0 | 0.00 | 0.01 | 0.00 | 82 | 1014.0 |
| 20260506062147 | 56 | 0 | 0.0 | 0.0 | 0.00 | 0.01 | 0.01 | 82 | 1013.9 |
| 20260506061647 | 56 | 0 | 0.0 | 0.0 | 0.00 | 0.01 | 0.01 | 82 | 1013.9 |
| 20260506061149 | 56 | 0 | 0.0 | 0.0 | 0.00 | 0.01 | 0.01 | 82 | 1013.9 |
| 20260506060147 | 56 | 0 | 0.0 | 0.0 | 0.00 | 0.02 | 0.01 | 82 | 1013.8 |
| 20260506051149 | 56 | 0 | 0.0 | 0.0 | 0.00 | 0.02 | 0.01 | 82 | 1013.9 |
| 20260506050647 | 56 | 0 | 0.0 | 0.0 | 0.00 | 0.02 | 0.01 | 82 | 1014.0 |
| 20260506050147 | 56 | 0 | 0.0 | 0.0 | 0.00 | 0.02 | 0.01 | 82 | 1013.9 |
| 20260506044647 | 57 | 0 | 0.0 | 0.0 | 0.00 | 0.02 | 0.01 | 82 | 1013.8 |
| 20260506044149 | 57 | 0 | 0.0 | 0.0 | 0.00 | 0.02 | 0.01 | 82 | 1013.6 |
| 20260506043647 | 57 | 0 | 0.0 | 0.0 | 0.00 | 0.02 | 0.01 | 82 | 1013.7 |
| 20260506043147 | 57 | 0 | 0.0 | 0.0 | 0.00 | 0.02 | 0.01 | 82 | 1013.6 |
| 20260506042648 | 57 | 0 | 0.0 | 0.0 | 0.00 | 0.02 | 0.01 | 82 | 1013.5 |
| 20260506042147 | 57 | 0 | 0.0 | 0.0 | 0.00 | 0.02 | 0.01 | 82 | 1013.5 |
| 20260506041647 | 57 | 0 | 0.0 | 0.0 | 0.00 | 0.02 | 0.01 | 82 | 1013.6 |
| 20260506041150 | 57 | 0 | 0.0 | 0.0 | 0.00 | 0.02 | 0.01 | 81 | 1013.5 |
| 20260506040647 | 57 | 0 | 0.0 | 0.0 | 0.00 | 0.02 | 0.01 | 81 | 1013.4 |
| 20260506040147 | 57 | 0 | 0.0 | 3.0 | 0.00 | 0.02 | 0.01 | 81 | 1013.3 |
| 20260506035648 | 57 | 0 | 0.0 | 3.0 | 0.00 | 0.02 | 0.01 | 81 | 1013.3 |
| 20260506035147 | 57 | 315 | 0.0 | 3.0 | 0.00 | 0.02 | 0.01 | 81 | 1013.2 |
| 20260506034648 | 57 | 330 | 0.0 | 2.0 | 0.00 | 0.02 | 0.01 | 81 | 1013.2 |
| 20260506034149 | 57 | 336 | 1.0 | 4.0 | 0.00 | 0.02 | 0.01 | 81 | 1013.1 |
| 20260506033648 | 57 | 343 | 1.0 | 4.0 | 0.00 | 0.02 | 0.01 | 81 | 1013.1 |
| 20260506033147 | 57 | 326 | 2.0 | 4.0 | 0.00 | 0.02 | 0.01 | 81 | 1012.9 |
| 20260506032648 | 57 | 324 | 3.0 | 4.0 | 0.00 | 0.02 | 0.01 | 81 | 1012.9 |
| 20260506032147 | 57 | 331 | 2.0 | 5.0 | 0.00 | 0.02 | 0.01 | 81 | 1012.8 |
| 20260506031647 | 57 | 331 | 1.0 | 5.0 | 0.00 | 0.02 | 0.01 | 81 | 1012.8 |
| 20260506031150 | 57 | 329 | 3.0 | 5.0 | 0.00 | 0.02 | 0.01 | 81 | 1012.8 |
| 20260506030648 | 58 | 323 | 2.0 | 4.0 | 0.00 | 0.02 | 0.01 | 81 | 1012.8 |
| 20260506030148 | 58 | 338 | 2.0 | 7.0 | 0.00 | 0.02 | 0.01 | 81 | 1012.7 |
| 20260506025648 | 58 | 320 | 3.0 | 7.0 | 0.00 | 0.02 | 0.01 | 81 | 1012.7 |